カタログに戻る

STARLINK-36795

運用中通信SSO
NORAD 67809·PAYLOAD·🇺🇸 United States

打ち上げ Feb 15, 2026 から Vandenberg Space Force Base

Loading…

次のパス (今後24時間)

TLE

最新Source: CelesTrak SupGP

元期: Sep 15, 2026, 03:17 UTC

1 67809C 26032N   26258.13729167 -.00053704  00000+0 -16672-2 0  2584
2 67809  97.2852  84.5776 0001602  90.3746 160.5595 15.33465017    17

AllMySatでSTARLINK-36795をリアルタイム追跡

Download on the App Store